K5GHS-1 Weather Reports


Display with metric or nautical units.
time (UTC)temp
F
wind
direction
speed
MPH
gust
MPH
rain 1hr
in
rain 24hr
in
rain mn
in
humidity
%
barometer
mb
20260506162331 54 73 0.0 0.0 0.00 0.10 0.10 92 1013.5
20260506161829 54 73 0.0 2.0 0.00 0.10 0.10 92 1013.1
20260506161325 54 76 0.0 1.0 0.00 0.10 0.10 92 1012.5
20260506160818 54 70 1.0 2.0 0.00 0.10 0.10 91 1012.0
20260506160314 55 79 0.0 2.0 0.00 0.10 0.10 91 1011.4
20260506155813 54 72 0.0 1.0 0.07 0.10 0.10 90 1012.2
20260506155309 54 245 2.0 5.0 0.19 0.10 0.10 89 1012.6
20260506153422 54 62 0.0 3.0 0.00 0.00 0.00 86 1014.7
20260506152919 54 71 1.0 1.0 0.00 0.00 0.00 85 1014.0
20260506152416 55 69 0.0 2.0 0.00 0.00 0.00 84 1013.6
20260506151915 55 71 1.0 2.0 0.00 0.00 0.00 84 1013.3
20260506151411 55 72 1.0 2.0 0.00 0.00 0.00 83 1013.1
20260506150909 54 64 0.0 1.0 0.00 0.00 0.00 83 1012.6
20260506150405 54 77 0.0 1.0 0.00 0.00 0.00 83 1013.1
20260506145902 54 74 0.0 0.0 0.00 0.00 0.00 83 1013.2
20260506145358 54 73 1.0 2.0 0.00 0.00 0.00 83 1013.1
20260506144856 54 72 1.0 3.0 0.00 0.00 0.00 82 1012.4
20260506144352 54 68 1.0 3.0 0.00 0.00 0.00 82 1013.2
20260506143850 54 71 0.0 2.0 0.00 0.00 0.00 82 1013.2
20260506143347 54 44 2.0 2.0 0.00 0.00 0.00 82 1013.1
20260506142846 55 84 0.0 1.0 0.00 0.00 0.00 82 1013.0
20260506142343 54 71 0.0 1.0 0.00 0.00 0.00 83 1012.7
20260506141841 54 72 0.0 1.0 0.00 0.00 0.00 83 1012.4
20260506141339 54 69 2.0 2.0 0.00 0.00 0.00 83 1012.3
20260506140837 54 69 0.0 1.0 0.00 0.00 0.00 83 1012.4
20260506140333 54 64 0.0 1.0 0.00 0.00 0.00 83 1012.2
20260506135830 54 57 1.0 2.0 0.00 0.00 0.00 83 1012.2
20260506135327 54 66 1.0 2.0 0.00 0.00 0.00 83 1012.2
20260506134823 54 65 1.0 2.0 0.00 0.00 0.00 83 1011.7
20260506134320 54 70 1.0 3.0 0.00 0.00 0.00 83 1012.0
20260506133817 54 67 0.0 1.0 0.00 0.00 0.00 84 1011.9
20260506133314 53 28 0.0 2.0 0.00 0.00 0.00 84 1012.1
20260506132810 53 77 0.0 3.0 0.00 0.00 0.00 85 1011.8
20260506132308 53 72 1.0 6.0 0.00 0.00 0.00 86 1011.6
20260506131806 53 102 1.0 1.0 0.00 0.00 0.00 87 1011.4
20260506131301 53 82 1.0 2.0 0.00 0.00 0.00 87 1011.6
20260506130758 53 70 0.0 2.0 0.00 0.00 0.00 87 1011.7
20260506130255 53 71 0.0 0.0 0.00 0.00 0.00 87 1011.4
20260506125753 53 61 0.0 3.0 0.00 0.00 0.00 86 1011.5
20260506125251 53 83 2.0 3.0 0.00 0.00 0.00 86 1011.4
20260506124749 53 68 0.0 1.0 0.00 0.00 0.00 86 1011.4
20260506124246 53 68 1.0 1.0 0.00 0.00 0.00 86 1011.4
20260506123743 53 71 0.0 1.0 0.00 0.00 0.00 86 1011.1
20260506123242 53 70 0.0 2.0 0.00 0.00 0.00 85 1011.3
20260506122738 53 69 0.0 3.0 0.00 0.00 0.00 85 1011.5
20260506122236 53 117 1.0 1.0 0.00 0.00 0.00 85 1011.4
20260506121734 53 72 0.0 1.0 0.00 0.00 0.00 85 1011.1
20260506121230 53 66 0.0 2.0 0.00 0.00 0.00 85 1011.0
20260506120727 53 82 0.0 1.0 0.00 0.00 0.00 85 1011.1
20260506120225 53 68 2.0 3.0 0.00 0.00 0.00 84 1011.0
20260506115723 53 57 1.0 1.0 0.00 0.00 0.00 84 1010.9
20260506115221 53 68 0.0 2.0 0.00 0.00 0.00 84 1010.8
20260506114719 53 72 1.0 2.0 0.00 0.00 0.00 84 1011.1
20260506114216 54 71 0.0 3.0 0.00 0.00 0.00 83 1010.8
20260506113714 54 38 1.0 6.0 0.00 0.00 0.00 83 1010.3
20260506113211 54 69 0.0 7.0 0.00 0.00 0.00 82 1010.5
20260506112707 55 71 0.0 0.0 0.00 0.00 0.00 81 1010.4
20260506112205 55 76 0.0 1.0 0.00 0.00 0.00 81 1010.5
20260506111703 55 66 0.0 1.0 0.00 0.00 0.00 81 1010.2
20260506111201 55 117 1.0 2.0 0.00 0.00 0.00 81 1010.2
20260506110657 55 72 0.0 2.0 0.00 0.00 0.00 80 1010.4
20260506110155 55 70 0.0 1.0 0.00 0.00 0.00 80 1010.1
20260506105651 55 66 1.0 1.0 0.00 0.00 0.00 79 1010.0
20260506105148 55 62 0.0 2.0 0.00 0.00 0.00 79 1010.1
20260506104646 55 69 0.0 3.0 0.00 0.00 0.00 78 1009.9
20260506104144 55 59 2.0 3.0 0.00 0.00 0.00 78 1009.9
20260506103641 55 63 2.0 5.0 0.00 0.00 0.00 77 1009.7
20260506103138 56 58 0.0 1.0 0.00 0.00 0.00 77 1009.5
20260506102636 55 77 0.0 2.0 0.00 0.00 0.00 77 1009.4
20260506102133 56 90 1.0 2.0 0.00 0.00 0.00 77 1009.6
20260506101629 56 71 0.0 1.0 0.00 0.00 0.00 76 1009.3
20260506101126 56 70 0.0 1.0 0.00 0.00 0.00 76 1009.2
20260506100625 56 69 1.0 1.0 0.00 0.00 0.00 76 1009.2
20260506100122 56 72 0.0 0.0 0.00 0.00 0.00 76 1009.1
20260506095621 56 70 0.0 1.0 0.00 0.00 0.00 76 1009.1
20260506095117 56 40 2.0 5.0 0.00 0.00 0.00 76 1008.9
20260506094615 56 62 0.0 3.0 0.00 0.00 0.00 76 1009.1
20260506094112 56 72 0.0 1.0 0.00 0.00 0.00 76 1009.2
20260506093611 56 77 0.0 1.0 0.00 0.00 0.00 76 1009.0
20260506093108 56 74 0.0 2.0 0.00 0.00 0.00 76 1008.9
20260506092605 57 61 0.0 1.0 0.00 0.00 0.00 75 1008.8
20260506092102 57 68 0.0 1.0 0.00 0.00 0.00 75 1009.0
20260506091600 57 74 0.0 0.0 0.00 0.00 0.00 75 1008.9
20260506091058 57 70 0.0 0.0 0.00 0.00 0.00 75 1008.9
20260506090555 57 69 0.0 1.0 0.00 0.00 0.00 75 1008.7
20260506090051 57 72 0.0 1.0 0.00 0.00 0.00 75 1008.5
20260506085548 57 72 0.0 1.0 0.00 0.00 0.00 76 1008.5
20260506085044 58 71 1.0 2.0 0.00 0.00 0.00 76 1008.5
20260506084542 58 56 0.0 1.0 0.00 0.00 0.00 76 1008.7
20260506084038 58 63 0.0 2.0 0.00 0.00 0.00 76 1008.5
20260506083535 58 58 0.0 1.0 0.00 0.00 0.00 76 1008.3
20260506083032 58 67 0.0 2.0 0.00 0.00 0.00 76 1008.3
20260506082529 58 325 3.0 5.0 0.00 0.00 0.00 76 1008.5
20260506082025 58 73 0.0 0.0 0.00 0.00 0.00 76 1008.3
20260506081523 58 68 1.0 2.0 0.00 0.00 0.00 76 1008.5
20260506081020 58 71 0.0 1.0 0.00 0.00 0.00 76 1008.2
20260506080518 58 81 0.0 0.0 0.00 0.00 0.00 76 1008.0
20260506073501 58 73 0.0 1.0 0.00 0.00 0.00 76 1008.1
20260506072958 58 71 0.0 1.0 0.00 0.00 0.00 76 1007.8
20260506072455 58 104 0.0 1.0 0.00 0.00 0.00 76 1008.2
20260506071953 58 57 0.0 2.0 0.00 0.00 0.00 77 1008.4
20260506071451 58 53 1.0 2.0 0.00 0.00 0.00 77 1008.2
20260506070948 58 72 0.0 1.0 0.00 0.00 0.00 77 1008.3
20260506070445 58 77 0.0 2.0 0.00 0.00 0.00 77 1008.3
20260506062422 59 72 1.0 2.0 0.00 0.00 0.00 79 1008.1
20260506061918 59 59 1.0 1.0 0.00 0.00 0.00 79 1008.2
20260506061415 59 67 0.0 1.0 0.00 0.00 0.00 79 1008.1
20260506060913 59 58 1.0 6.0 0.00 0.00 0.00 79 1008.2
20260506060411 60 68 1.0 2.0 0.00 0.00 0.00 79 1008.3
20260506051342 61 286 1.0 3.0 0.00 0.00 0.00 79 1008.3
20260506050840 61 76 0.0 2.0 0.00 0.00 0.00 79 1008.2
20260506050337 61 76 0.0 2.0 0.00 0.00 0.00 80 1008.3
20260506044828 61 73 0.0 1.0 0.00 0.00 0.00 80 1008.2
20260506044325 62 74 0.0 3.0 0.00 0.00 0.00 80 1008.1
20260506043822 62 67 0.0 1.0 0.00 0.00 0.00 80 1008.1
20260506043320 62 73 2.0 5.0 0.00 0.00 0.00 80 1007.8
20260506042818 62 71 0.0 2.0 0.00 0.00 0.00 80 1007.7
20260506042317 63 72 0.0 2.0 0.00 0.00 0.00 80 1007.7
20260506041815 63 48 1.0 2.0 0.00 0.00 0.00 80 1007.8
20260506041311 63 62 1.0 5.0 0.00 0.00 0.00 80 1007.6
20260506040809 63 72 1.0 2.0 0.00 0.00 0.00 79 1007.5
20260506040306 63 74 1.0 3.0 0.00 0.00 0.00 79 1007.4
20260506035802 63 70 0.0 1.0 0.00 0.00 0.00 79 1007.2
20260506035259 64 69 1.0 1.0 0.00 0.00 0.00 79 1007.3
20260506034757 64 77 0.0 3.0 0.00 0.00 0.00 79 1007.7
20260506034254 64 70 0.0 1.0 0.00 0.00 0.00 79 1007.3
20260506033750 64 70 2.0 3.0 0.00 0.00 0.00 79 1007.4
20260506033248 65 66 0.0 2.0 0.00 0.00 0.00 79 1007.1
20260506032745 65 66 0.0 1.0 0.00 0.00 0.00 78 1007.3
20260506032242 65 74 1.0 2.0 0.00 0.00 0.00 78 1007.2
20260506031738 66 71 1.0 5.0 0.00 0.00 0.00 78 1006.9
20260506031236 66 68 1.0 3.0 0.00 0.00 0.00 78 1007.0
20260506030734 67 194 1.0 8.0 0.00 0.00 0.00 77 1006.9
20260506030231 67 64 1.0 1.0 0.00 0.00 0.00 77 1006.7
20260506025727 68 74 0.0 5.0 0.00 0.00 0.00 76 1006.8
20260506025224 68 76 1.0 1.0 0.00 0.00 0.00 77 1006.6
20260506024721 69 88 1.0 1.0 0.00 0.00 0.00 77 1006.2
20260506024218 69 70 0.0 1.0 0.00 0.00 0.00 76 1006.0
20260506023714 69 71 0.0 2.0 0.00 0.00 0.00 76 1006.0
20260506023211 69 72 0.0 1.0 0.00 0.00 0.00 76 1005.9
20260506022708 69 47 0.0 2.0 0.00 0.00 0.00 76 1005.5
20260506022206 70 31 0.0 1.0 0.00 0.00 0.00 76 1005.4
20260506021704 70 77 0.0 1.0 0.00 0.00 0.00 76 1005.6
20260506021200 70 69 0.0 1.0 0.00 0.00 0.00 76 1005.4
20260506020657 70 45 0.0 1.0 0.00 0.00 0.00 76 1005.2
20260506020155 70 81 0.0 1.0 0.00 0.00 0.00 76 1005.2
20260506015652 71 75 0.0 1.0 0.00 0.00 0.00 75 1004.9
20260506015150 71 75 0.0 1.0 0.00 0.00 0.00 75 1005.1
20260506014647 71 72 0.0 1.0 0.00 0.00 0.00 74 1005.0
20260506014142 72 67 1.0 5.0 0.00 0.00 0.00 74 1004.7
20260506013641 73 102 0.0 1.0 0.00 0.00 0.00 74 1004.5
20260506013137 73 73 0.0 0.0 0.00 0.00 0.00 73 1004.8
20260506012633 73 69 0.0 1.0 0.00 0.00 0.00 72 1004.9
20260506012130 73 74 0.0 1.0 0.00 0.00 0.00 72 1004.7
20260506011628 73 73 0.0 2.0 0.00 0.00 0.00 72 1004.5
20260506011124 73 69 0.0 1.0 0.00 0.00 0.00 71 1004.2
20260506010623 73 80 0.0 1.0 0.00 0.00 0.00 71 1004.5
20260506010119 74 51 0.0 0.0 0.00 0.00 0.00 71 1004.0
20260506005616 74 98 1.0 1.0 0.00 0.00 0.00 71 1003.9
20260506005113 74 66 1.0 2.0 0.00 0.00 0.00 71 1003.8
20260506004610 74 64 1.0 2.0 0.00 0.00 0.00 70 1004.0
20260506004106 74 72 0.0 2.0 0.00 0.00 0.00 70 1003.9
20260506003603 75 81 0.0 6.0 0.00 0.00 0.00 69 1004.2
20260506003059 75 71 0.0 1.0 0.00 0.00 0.00 69 1003.9
20260506002555 75 70 0.0 1.0 0.00 0.00 0.00 69 1004.0
20260506002051 76 74 0.0 2.0 0.00 0.00 0.00 68 1004.3
20260506001547 76 75 0.0 0.0 0.00 0.00 0.00 69 1003.8
20260506001045 77 73 0.0 0.0 0.00 0.00 0.00 68 1003.9
20260506000542 78 61 2.0 9.0 0.00 0.00 0.00 67 1003.7
20260506000039 78 74 0.0 1.0 0.00 0.00 0.00 66 1003.3
20260505235537 79 70 0.0 1.0 0.00 0.00 0.00 66 1003.3
20260505235034 79 339 1.0 2.0 0.00 0.00 0.00 65 1003.3
20260505234531 80 58 1.0 2.0 0.00 0.00 0.00 64 1003.4
20260505234028 80 68 2.0 3.0 0.00 0.00 0.00 64 1003.3
20260505233525 81 79 0.0 1.0 0.00 0.00 0.00 63 1003.0
20260505233023 82 74 1.0 1.0 0.00 0.00 0.00 62 1003.2
20260505232520 82 73 1.0 2.0 0.00 0.00 0.00 61 1003.1
20260505232018 83 73 0.0 6.0 0.00 0.00 0.00 60 1002.8
20260505231514 84 73 0.0 1.0 0.00 0.00 0.00 58 1002.8
20260505231013 85 62 1.0 1.0 0.00 0.00 0.00 55 1002.6
20260505230510 85 76 0.0 1.0 0.00 0.00 0.00 53 1002.5
20260505230007 85 69 0.0 1.0 0.00 0.00 0.00 51 1002.4
20260505225504 86 75 0.0 1.0 0.00 0.00 0.00 51 1002.3
20260505224959 87 73 0.0 3.0 0.00 0.00 0.00 49 1002.4
20260505224456 88 73 0.0 0.0 0.00 0.00 0.00 48 1002.5
20260505223954 89 41 1.0 5.0 0.00 0.00 0.00 47 1002.3
20260505223450 91 60 0.0 0.0 0.00 0.00 0.00 46 1002.4
20260505222947 92 76 0.0 1.0 0.00 0.00 0.00 48 1002.0
20260505222443 91 101 1.0 2.0 0.00 0.00 0.00 52 1001.6
20260505221939 91 69 1.0 3.0 0.00 0.00 0.00 51 1001.7
20260505221437 93 79 2.0 2.0 0.00 0.00 0.00 50 1001.6
20260505220934 92 66 0.0 1.0 0.00 0.00 0.00 53 1001.5
20260505220430 91 67 0.0 0.0 0.00 0.00 0.00 53 1001.5
20260505215928 90 72 0.0 2.0 0.00 0.00 0.00 55 1001.8
20260505215426 90 75 1.0 1.0 0.00 0.00 0.00 54 1002.0
20260505214924 91 202 2.0 3.0 0.00 0.00 0.00 53 1001.9
20260505214421 92 77 0.0 1.0 0.00 0.00 0.00 52 1002.0
20260505213918 93 217 1.0 5.0 0.00 0.00 0.00 51 1002.2
20260505213416 92 71 0.0 1.0 0.00 0.00 0.00 53 1002.0
20260505212912 92 85 1.0 5.0 0.00 0.00 0.00 52 1002.0
20260505212409 91 81 0.0 1.0 0.00 0.00 0.00 52 1002.1
20260505211905 91 104 0.0 3.0 0.00 0.00 0.00 53 1002.3
20260505211403 91 103 1.0 3.0 0.00 0.00 0.00 54 1002.2
20260505210859 91 84 0.0 1.0 0.00 0.00 0.00 54 1002.4
20260505210356 91 221 1.0 2.0 0.00 0.00 0.00 56 1002.3
20260505205853 91 164 2.0 5.0 0.00 0.00 0.00 55 1002.1
20260505205351 90 87 1.0 2.0 0.00 0.00 0.00 58 1002.4
20260505204848 90 155 2.0 5.0 0.00 0.00 0.00 58 1002.3
20260505204346 90 80 0.0 3.0 0.00 0.00 0.00 58 1002.4
20260505203843 90 85 0.0 1.0 0.00 0.00 0.00 59 1002.6
20260505203339 90 248 1.0 2.0 0.00 0.00 0.00 58 1002.8
20260505202836 90 76 1.0 2.0 0.00 0.00 0.00 59 1003.1
20260505202332 90 155 0.0 6.0 0.00 0.00 0.00 57 1002.8
20260505201829 88 80 0.0 2.0 0.00 0.00 0.00 60 1002.6
20260505201326 89 136 1.0 2.0 0.00 0.00 0.00 61 1002.7
20260505200824 88 91 2.0 3.0 0.00 0.00 0.00 60 1002.8
20260505200321 88 190 2.0 2.0 0.00 0.00 0.00 59 1002.7
20260505195816 89 93 0.0 2.0 0.00 0.00 0.00 60 1002.8
20260505195314 88 79 0.0 1.0 0.00 0.00 0.00 60 1003.0
20260505194811 88 289 1.0 2.0 0.00 0.00 0.00 60 1002.8
20260505194308 88 109 1.0 2.0 0.00 0.00 0.00 59 1002.8
20260505193803 88 70 0.0 3.0 0.00 0.00 0.00 61 1003.1
20260505193301 88 43 1.0 2.0 0.00 0.00 0.00 62 1003.0
20260505192759 87 211 2.0 3.0 0.00 0.00 0.00 61 1002.7
20260505192257 87 89 0.0 3.0 0.00 0.00 0.00 62 1002.7
20260505191754 86 99 1.0 2.0 0.00 0.00 0.00 64 1002.8
20260505191253 86 95 3.0 5.0 0.00 0.00 0.00 63 1003.1
20260505190749 86 117 3.0 6.0 0.00 0.00 0.00 64 1002.7
20260505190244 86 197 3.0 6.0 0.00 0.00 0.00 64 1002.7
20260505185741 85 124 1.0 6.0 0.00 0.00 0.00 66 1003.1
20260505185237 85 140 1.0 2.0 0.00 0.00 0.00 66 1003.0
20260505184733 84 122 4.0 7.0 0.00 0.00 0.00 66 1003.1
20260505184231 84 144 2.0 5.0 0.00 0.00 0.00 66 1003.0
20260505183727 84 95 1.0 1.0 0.00 0.00 0.00 67 1003.2
20260505183225 84 85 1.0 5.0 0.00 0.00 0.00 68 1003.1
20260505182721 84 128 1.0 3.0 0.00 0.00 0.00 68 1003.2
20260505182218 84 95 1.0 9.0 0.00 0.00 0.00 68 1003.1
20260505181714 84 64 1.0 3.0 0.00 0.00 0.00 68 1003.1
20260505181212 84 43 1.0 6.0 0.00 0.00 0.00 67 1003.3
20260505180708 85 85 1.0 2.0 0.00 0.00 0.00 66 1003.1
20260505180205 84 46 2.0 5.0 0.00 0.00 0.00 66 1003.1
20260505175701 84 149 1.0 3.0 0.00 0.00 0.00 67 1003.1
20260505175157 83 82 1.0 3.0 0.00 0.00 0.00 68 1003.3
20260505174654 82 81 2.0 3.0 0.00 0.00 0.00 69 1003.0
20260505174150 82 49 3.0 7.0 0.00 0.00 0.00 69 1003.3
20260505173646 82 99 1.0 2.0 0.00 0.00 0.00 70 1003.2
20260505173143 82 112 1.0 3.0 0.00 0.00 0.00 70 1003.3
20260505172641 81 67 2.0 3.0 0.00 0.00 0.00 70 1003.3
20260505172137 81 130 1.0 6.0 0.00 0.00 0.00 70 1003.2
20260505171632 81 140 1.0 5.0 0.00 0.00 0.00 70 1003.2
20260505171130 81 83 0.0 3.0 0.00 0.00 0.00 71 1003.0
20260505170627 81 146 2.0 3.0 0.00 0.00 0.00 70 1003.5
20260505170123 81 108 0.0 1.0 0.00 0.00 0.00 71 1003.3
20260505165618 81 77 2.0 3.0 0.00 0.00 0.00 71 1003.3
20260505165114 81 109 4.0 6.0 0.00 0.00 0.00 70 1003.2
20260505164610 80 95 0.0 1.0 0.00 0.00 0.00 72 1003.5
20260505164108 80 249 2.0 3.0 0.00 0.00 0.00 72 1003.4
20260505163606 79 87 0.0 5.0 0.00 0.00 0.00 73 1003.5
20260505163103 79 102 2.0 3.0 0.00 0.00 0.00 73 1003.2
20260505162600 79 75 1.0 3.0 0.00 0.00 0.00 73 1003.5